[[[{"header":{"parameterUnit":"kt","parameterCategory":2,"dx":1,"dy":1,"la1":30.253999710083008,"la2":30.299108505249023,"lo1":-89.0895004272461,"lo2":-89.04439544677734,"nx":28,"ny":28,"refTime":"2022-09-20T09:00:00:Z","depth":0,"parameterNumber":1,"parameterNumberName":"U-component_of_WINDS"},"data":[-1.884,-1.8721,-1.8704,-1.8562,-1.8522,-1.8423,-1.8382,-1.8327,-1.8279,-1.816,-1.8088,-1.8059,-1.8005,-1.7917,-1.7839,-1.7828,-1.7798,-1.777,-1.7763,-1.7899,-1.7917,-1.7934,-1.7962,-1.7763,-1.7763,-1.7624,-1.7623,-1.7622,-1.895,-1.891,-1.8828,-1.8737,-1.8668,-1.8685,-1.8615,-1.8556,-1.8466,-1.8405,-1.8333,-1.8226,-1.8139,-1.8092,-1.8007,-1.7953,-1.7957,-1.7932,-1.7936,-1.7928,-1.8074,-1.8103,-1.7931,-1.7931,-1.7931,-1.7931,-1.7931,-1.7931,-1.9146,-1.9075,-1.901,-1.892,-1.887,-1.8809,-1.8738,-1.8703,-1.8623,-1.8529,-1.8522,-1.842,-1.8356,-1.8242,-1.8199,-1.812,-1.8145,-1.8112,-1.8104,-1.8097,-1.8093,-1.8303,-1.8104,-1.8105,-1.8105,-1.8105,-1.8106,0,-1.9285,-1.9276,-1.9194,-1.9109,-1.9043,-1.8974,-1.8908,-1.8864,-1.8835,-1.8769,-1.8674,-1.8616,-1.8502,-1.8411,-1.8324,-1.8285,-1.8296,-1.8294,-1.8272,-1.8275,-1.8292,-1.8285,-1.8527,-1.8299,-1.8301,-1.8302,-1.8303,-1.8304,-1.9485,-1.9402,-1.9323,-1.9269,-1.9228,-1.9139,-1.9083,-1.9064,-1.9005,-1.8921,-1.8859,-1.8766,-1.8691,-1.854,-1.8499,-1.8413,-1.8417,-1.8334,-1.8404,-1.8413,-1.842,-1.8426,-1.842,-1.8321,-1.8318,-1.8317,-1.8315,0,-1.9601,-1.957,-1.9434,-1.9363,-1.9343,-1.9257,-1.9197,-1.9123,-1.9095,-1.8991,-1.8966,-1.8922,-1.8828,-1.8799,-1.8684,-1.8672,-1.8536,-1.8541,-1.856,-1.856,-1.8485,-1.8494,-1.8237,-1.8205,-1.8407,-1.8405,-1.8404,0,-1.976,-1.9651,-1.9612,-1.9534,-1.9413,-1.9395,-1.9276,-1.924,-1.9181,-1.9099,-1.9105,-1.9028,-1.9002,-1.8921,-1.8902,-1.8785,-1.8762,-1.8747,-1.8744,-1.8748,-1.875,-1.8717,-1.8728,-1.8735,-1.8737,-1.8738,-1.8739,0,-1.9945,-1.9793,-1.9668,-1.9628,-1.9539,-1.9481,-1.9441,-1.9374,-1.9318,-1.9241,-1.9205,-1.9116,-1.9067,-1.8999,-1.8977,-1.9026,-1.8831,-1.8894,-1.8816,-1.8817,-1.8774,-1.8777,-1.8557,-1.874,-1.8741,-1.8741,-1.8742,0,-2.0069,-1.999,-1.9811,-1.9738,-1.9699,-1.9615,-1.9526,-1.9447,-1.9376,-1.9359,-1.9297,-1.9297,-1.9188,-1.9255,-1.9107,-1.9178,-1.9131,-1.9105,-1.9099,-1.9088,-1.9163,-1.9046,-1.8837,-1.8816,-1.908,-1.9082,-1.9085,0,-2.0292,-2.0101,-2.0083,-1.9912,-1.982,-1.9834,-1.9741,-1.9676,-1.9645,-1.9563,-1.9529,-1.9434,-1.9476,-1.9443,-1.9373,-1.9334,-1.924,-1.9345,-1.9231,-1.9227,-1.9253,-1.906,-1.9037,-1.8886,-1.912,-1.9117,-1.9114,0,-2.0461,-2.0351,-2.0321,-2.0276,-2.0185,-2.0107,-1.9998,-1.99,-1.9847,-1.9771,-1.9682,-1.9546,-1.9574,-1.9516,-1.9505,-1.9434,-1.9303,-1.9473,-1.9471,-1.9446,-1.9134,-1.9114,-1.9089,-1.9312,-1.9308,-1.9304,-1.9142,0,-2.0661,-2.0559,-2.0477,-2.0372,-2.0306,-2.0195,-2.0161,-2.0097,-2.0094,-2.0063,-1.9928,-1.9863,-1.9761,-1.9722,-1.9716,-1.9562,-1.9583,-1.9612,-1.9674,-1.9547,-1.9493,-1.947,-1.9758,-1.976,-1.9761,-1.9762,0,0,-2.0884,-2.0736,-2.0718,-2.061,-2.0554,-2.0567,-2.0452,-2.0398,-2.0287,-2.0249,-2.0283,-2.0081,-2.0026,-1.9865,-1.9823,-1.978,-1.975,-1.9794,-1.9607,-1.959,-1.9574,-1.9516,-1.9493,-1.9765,-1.9765,-1.9766,-1.9766,0,-2.095,-2.0893,-2.0778,-2.0722,-2.0637,-2.0608,-2.0581,-2.0498,-2.0472,-2.0337,-2.035,-2.0264,-2.0099,-2.0042,-1.999,-1.9813,-1.9827,-1.9784,-1.9702,-1.9621,-1.9603,-1.9586,-1.9526,-1.9504,-1.9769,-1.9769,-1.9769,0,-2.1112,-2.1051,-2.0991,-2.086,-2.0803,-2.0706,-2.0763,-2.0656,-2.0584,-2.0601,-2.0466,-2.0425,-2.0342,-2.0192,-2.0124,-2.0153,-1.99,-1.997,-1.9961,-1.9953,-1.9873,-1.985,-1.983,-2.0098,-2.0099,-2.01,0,0,-2.1174,-2.1077,-2.1004,-2.0871,-2.0835,-2.0789,-2.0733,-2.0723,-2.0648,-2.0617,-2.0564,-2.0491,-2.0396,-2.0334,-2.0242,-2.0082,-2.0064,-2.0013,-1.9997,-1.9984,-1.9969,-1.9887,-1.9864,-2.0105,-2.0105,-2.0105,0,0,-2.1202,-2.1113,-2.1122,-2.0963,-2.0892,-2.081,-2.0731,-2.074,-2.0654,-2.0663,-2.0639,-2.0618,-2.0477,-2.0435,-2.0505,-2.0264,-2.0325,-2.0308,-2.0296,-2.0276,-2.0261,-2.0274,-2.0553,0,0,0,0,0,-2.1252,-2.1125,-2.1134,-2.1102,-2.0934,-2.0806,-2.0784,-2.0762,-2.0808,-2.0746,-2.0703,-2.072,-2.0469,-2.0531,-2.0499,-2.0421,-2.0169,-2.0157,-2.0147,-2.0094,-2.0074,-2.0056,0,0,0,0,0,0,-2.1239,-2.12,-2.1138,-2.1051,-2.1013,-2.081,-2.0883,-2.0874,-2.0814,-2.082,-2.0728,-2.0717,-2.0696,-2.0545,-2.0517,-2.0443,-2.0563,-2.0164,-2.0155,-2.0146,-2.0087,-2.007,-2.0056,0,0,0,0,0,-2.1229,-2.1197,-2.0932,-2.1052,-2.1019,-2.096,-2.0888,-2.088,-2.0834,-2.0765,-2.0755,-2.0823,-2.0694,-2.0669,-2.0528,-2.0457,-2.0582,-2.0572,-2.0158,-2.015,-2.0144,-2.0079,0,0,0,0,0,0,-2.1221,-2.1189,-2.0925,-2.0914,-2.1098,-2.0971,-2.0951,-2.0886,-2.0783,-2.0771,-2.086,-2.0865,-2.0691,-2.0672,-2.0653,-2.0463,-2.0598,-2.0587,-2.0581,-2.0152,-2.0146,-2.0141,0,0,0,0,0,0,-2.1206,-2.118,-2.092,-2.0979,-2.0974,-2.0981,-2.0963,-2.0839,-2.0781,-2.0883,-2.0884,-2.0863,-2.072,-2.0674,-2.0659,-2.0467,-2.061,-2.06,-2.0593,-2.0588,-2.0147,-2.0143,0,0,0,0,0,0,-2.1195,-2.1172,-2.0981,-2.0978,-2.0975,-2.0851,-2.0872,-2.07,-2.0833,-2.0887,-2.0844,-2.0849,-2.0721,-2.0706,-2.0663,-2.0477,-2.0469,-2.061,-2.0603,-2.0598,-2.0594,0,0,0,0,0,0,0,-2.1186,-2.1341,-2.099,-2.0977,-2.0975,-2.0814,-2.0811,-2.0808,-2.0834,-2.0839,-2.0843,-2.0847,-2.0668,-2.0657,-2.0645,-2.0486,0,0,-2.0611,-2.0606,0,0,0,0,0,0,0,0,-2.135,-2.1343,-2.0989,-2.0987,-2.0985,-2.0814,-2.0811,-2.0809,-2.0835,-2.0838,-2.0842,-2.0845,-2.0665,-2.0656,-2.0647,0,0,0,0,0,0,0,0,0,0,0,0,0,0,0,-2.0989,-2.0987,0,-2.0813,-2.0811,-2.0809,-2.0835,-2.0838,-2.0841,-2.0844,-2.0662,-2.0655,-2.0647,0,0,0,0,0,0,0,0,0,0,0,0,0,0,0,0,0,0,0,0,0,0,0,0,0,0,0,0,0,0,0,0,0,0,0,0,0,0,0,0,0,0,0,0,0,0,0,0,0,0,0,0,0,0,0,0,0,0,0,0,0,0,0,0,0,0,0,0,0]}],[{"header":{"parameterUnit":"kt","parameterCategory":2,"dx":1,"dy":1,"la1":30.253999710083008,"la2":30.299108505249023,"lo1":-89.0895004272461,"lo2":-89.04439544677734,"nx":28,"ny":28,"refTime":"2022-09-20T09:00:00:Z","depth":0,"parameterNumber":2,"parameterNumberName":"V-component_of_WINDS"},"data":[1.1921,1.1969,1.1959,1.201,1.201,1.2042,1.205,1.206,1.2066,1.2103,1.2122,1.2119,1.2121,1.2141,1.2161,1.2159,1.2165,1.2187,1.218,1.2092,1.208,1.2067,1.2053,1.2191,1.2191,1.2269,1.227,1.2271,1.1849,1.1849,1.1875,1.1893,1.1914,1.1886,1.1899,1.1917,1.1948,1.1957,1.1977,1.2009,1.2034,1.2029,1.2051,1.2071,1.2058,1.2077,1.2072,1.2072,1.1979,1.1965,1.2086,1.2086,1.2086,1.2086,1.2086,1.2086,1.1714,1.1745,1.1751,1.1778,1.1786,1.1799,1.1826,1.1821,1.1846,1.187,1.1856,1.1891,1.1898,1.1922,1.1929,1.1954,1.1932,1.1949,1.1952,1.1955,1.1957,1.1833,1.1958,1.1958,1.1958,1.1957,1.1957,0,1.1611,1.1601,1.1627,1.1649,1.1669,1.1687,1.1701,1.1718,1.1697,1.172,1.175,1.1767,1.1799,1.1826,1.1847,1.185,1.1822,1.1822,1.1832,1.1834,1.1833,1.1827,1.167,1.1817,1.1816,1.1815,1.1814,1.1814,1.1468,1.1509,1.1513,1.1532,1.1538,1.1571,1.1587,1.1567,1.1586,1.1601,1.1629,1.1658,1.1679,1.1732,1.1726,1.1751,1.1737,1.1792,1.174,1.1741,1.1729,1.1724,1.1725,1.1801,1.1803,1.1804,1.1805,0,1.1387,1.1375,1.1435,1.1437,1.1438,1.1481,1.1482,1.1513,1.1507,1.1549,1.1557,1.1547,1.1579,1.1565,1.16,1.1591,1.1654,1.1644,1.1649,1.1643,1.1687,1.168,1.1844,1.1861,1.1726,1.1727,1.1728,0,1.1257,1.1313,1.129,1.1326,1.1385,1.1363,1.1421,1.1422,1.143,1.1463,1.1432,1.1463,1.1442,1.1471,1.1459,1.1509,1.1518,1.1512,1.1507,1.1511,1.1511,1.1517,1.1508,1.1504,1.1503,1.1502,1.1501,0,1.1127,1.1184,1.1242,1.1253,1.1262,1.129,1.1296,1.1306,1.1324,1.1346,1.1357,1.1386,1.14,1.1421,1.1404,1.1368,1.1468,1.1416,1.1461,1.1461,1.148,1.1478,1.1631,1.15,1.15,1.15,1.15,0,1.1019,1.1043,1.1134,1.1138,1.1154,1.1195,1.1219,1.1252,1.1266,1.126,1.1278,1.1255,1.1304,1.1251,1.1315,1.1272,1.1287,1.1287,1.1291,1.1289,1.1229,1.1308,1.1461,1.1473,1.1293,1.1291,1.1289,0,1.0868,1.0959,1.094,1.1028,1.1067,1.1026,1.1071,1.1086,1.1083,1.1114,1.1111,1.1149,1.1108,1.1117,1.1152,1.1149,1.1206,1.1142,1.1181,1.1182,1.1171,1.1313,1.1335,1.143,1.1268,1.127,1.1272,0,1.075,1.0763,1.0781,1.079,1.0808,1.0843,1.0896,1.0929,1.095,1.0974,1.1014,1.1071,1.1039,1.1057,1.1043,1.1079,1.1167,1.1041,1.1041,1.1058,1.1258,1.1278,1.1295,1.1148,1.1151,1.1153,1.1254,0,1.0575,1.0623,1.0672,1.07,1.0726,1.0784,1.077,1.0798,1.078,1.0776,1.084,1.0852,1.0887,1.0906,1.089,1.098,1.0962,1.093,1.0874,1.097,1.1002,1.1016,1.0826,1.0824,1.0823,1.0822,0,0,1.043,1.0498,1.0479,1.0531,1.055,1.0509,1.057,1.0586,1.0618,1.0631,1.0601,1.0682,1.0694,1.0773,1.0802,1.082,1.0832,1.0801,1.0926,1.0938,1.0948,1.0983,1.0998,1.0819,1.0819,1.0818,1.0818,0,1.0363,1.0379,1.0442,1.0456,1.0477,1.0471,1.0487,1.05,1.0501,1.0567,1.053,1.0568,1.0639,1.0652,1.0668,1.0792,1.0761,1.0805,1.0872,1.0912,1.0926,1.0938,1.0975,1.099,1.0814,1.0815,1.0815,0,1.0238,1.0249,1.028,1.0328,1.0342,1.0386,1.0324,1.0377,1.0409,1.0362,1.0428,1.0433,1.0454,1.0534,1.057,1.0543,1.0696,1.0649,1.0658,1.066,1.0698,1.0714,1.0729,1.0535,1.0534,1.0533,0,0,1.0181,1.0227,1.0233,1.0312,1.0324,1.0316,1.0341,1.0325,1.0345,1.0354,1.036,1.038,1.0419,1.0446,1.0483,1.0574,1.0573,1.0615,1.0628,1.0639,1.0647,1.0688,1.0704,1.053,1.053,1.053,0,0,1.0154,1.0163,1.0142,1.0233,1.0254,1.0264,1.0312,1.0286,1.0319,1.031,1.0288,1.0293,1.0368,1.0376,1.0329,1.0461,1.0407,1.0418,1.0453,1.0469,1.0482,1.0476,1.0267,0,0,0,0,0,1.0078,1.0162,1.0142,1.0156,1.0219,1.0275,1.0283,1.0266,1.0226,1.0263,1.0264,1.0232,1.0344,1.0303,1.0316,1.0367,1.0484,1.0492,1.05,1.0566,1.0583,1.0598,0,0,0,0,0,0,1.0084,1.01,1.014,1.0155,1.0169,1.0272,1.02,1.0197,1.0221,1.0214,1.0233,1.0232,1.0219,1.0295,1.0307,1.0356,1.0262,1.0487,1.0494,1.05,1.0572,1.0586,1.0598,0,0,0,0,0,1.0088,1.0101,1.0206,1.0154,1.0166,1.0163,1.0197,1.0194,1.0212,1.0215,1.0213,1.0197,1.0221,1.023,1.0302,1.035,1.0254,1.0258,1.0492,1.0497,1.0502,1.0579,0,0,0,0,0,0,1.0091,1.0099,1.0208,1.0211,1.0121,1.0156,1.0162,1.0191,1.0211,1.0211,1.0177,1.0171,1.0223,1.023,1.0237,1.0349,1.0247,1.0251,1.0254,1.0496,1.05,1.0504,0,0,0,0,0,0,1.0091,1.0102,1.021,1.017,1.0168,1.0151,1.0155,1.0216,1.0212,1.0172,1.0168,1.0174,1.0212,1.0231,1.0236,1.0331,1.0241,1.0246,1.0249,1.0251,1.0499,1.0503,0,0,0,0,0,0,1.0095,1.0104,1.0169,1.0168,1.0166,1.0198,1.0204,1.0269,1.0178,1.0172,1.0169,1.0165,1.0214,1.0219,1.0235,1.0328,1.033,1.0241,1.0244,1.0247,1.0248,0,0,0,0,0,0,0,1.0098,1.0044,1.0191,1.0166,1.0164,1.0239,1.0239,1.024,1.0177,1.0174,1.017,1.0167,1.0215,1.022,1.0225,1.0326,0,0,1.0241,1.0243,0,0,0,0,0,0,0,0,1.004,1.0043,1.0191,1.0192,1.0192,1.0239,1.0239,1.024,1.0176,1.0174,1.0171,1.0168,1.0216,1.022,1.0225,0,0,0,0,0,0,0,0,0,0,0,0,0,0,0,1.0191,1.0192,0,1.0239,1.0239,1.024,1.0176,1.0174,1.0171,1.0169,1.0218,1.0221,1.0224,0,0,0,0,0,0,0,0,0,0,0,0,0,0,0,0,0,0,0,0,0,0,0,0,0,0,0,0,0,0,0,0,0,0,0,0,0,0,0,0,0,0,0,0,0,0,0,0,0,0,0,0,0,0,0,0,0,0,0,0,0,0,0,0,0,0,0,0,0]}]]]